ニート彗星

C/2003 H3 ( NEAT )

English version
Home page
Updated on January 15, 2005

---------------------------------------------------------------------

・ プロフィール

発見日 2003年4月30日
発見光度 17.2等
発見者 Near-Earth-Asteroid Tracking Team (Jet Propulsion Laboratory)

・ 写真集

・ 軌道要素

Epoch 2003 May 1.0 TT = JDT 2452760.5
T 2003 Apr. 24.24483 TT                                 MPC
q   2.9014465            (2000.0)            P               Q
z  +0.0001201      Peri.    6.48140     +0.07270372     +0.73000584
 +/-0.0000051      Node   269.41761     -0.94285802     -0.17183765
e   0.9996514      Incl.   42.81223     -0.32516599     +0.66148568
>From 509 observations 2003 Apr. 30-Aug. 4, mean residual 0".56.

・ 星図

・ 光度変化

        m1 = 9.8 + 5 logΔ +  8.0 log r  [   ,535]  (              〜2004年10月10日)
        m1 = 6.6 + 5 logΔ + 10.0 log r  [535,   ]  (2004年10月10日〜              )

---------------------------------------------------------------------

軌道要素はM.P.E.C. 2003-P18に掲載されたものです。
星図は StellaNavigator Ver.2.0 for Windows (アストロアーツ 編著 / アスキー出版局刊) で作成したものです。
光度グラフはComet for Windowsで作成したものです。

---------------------------------------------------------------------

Copyright(C) Seiichi Yoshida (comet@aerith.net). All rights reserved.